Tracking 30995 objects as of 5-Jul-2025
HD Live streaming from Space Station
objects crossing your sky now

STARLINK-32734

Track STARLINK-32734 now!
10-day predictions
STARLINK-32734 is classified as:


NORAD ID: 62476
Int'l Code: 2024-254Q
Perigee: 489.7 km
Apogee: 490.6 km
Inclination: 43.0 °
Period: 94.3 minutes
Semi major axis: 6861 km
RCS: Unknown
Launch date: December 31, 2024
Source: United States (US)
Launch site: AIR FORCE EASTERN TEST RANGE (AFETR)
Your satellite tracking list
STARLINK-5360
Track 1 satellite(s)




NASA's NSSDC Master Catalog

Two Line Element Set (TLE):
1 62476U 24254Q   25186.41355653  .00025163  00000-0  92065-3 0  9998
2 62476  42.9996 333.0020 0000663 298.0450  62.0335 15.27586062 29833
Source of the keplerian elements: AFSPC